Theta_e
350 348 346 344 344 343 342 342 342 342 342 339 338 338 336 335 333 330 330 331 331 335 333 334 343 342 345 344 346 346 347 347 347 348 349 349 349 344 341 341 343 345 345 344 344 344 344 344 345 346 346 347 348 349 348 349 350 349 349 347 346 346 345 344 342 342 341 341 340 338 338 336 336 335
352 350 348 345 344 346 343 342 342 343 343 341 339 339 339 339 335 334 330 331 333 335 334 334 338 342 342 343 344 344 345 346 347 348 346 345 346 343 339 338 338 340 341 341 340 340 340 340 340 341 343 344 345 346 348 349 349 349 348 347 346 346 345 343 342 341 341 339 338 337 336 335 336 335
353 351 349 348 346 346 344 343 341 343 342 342 340 339 339 338 338 335 335 329 337 334 337 337 336 338 341 340 341 343 344 345 346 347 347 346 344 343 343 339 337 336 337 338 337 337 337 336 336 337 338 340 341 343 345 346 347 347 347 347 346 345 344 343 341 341 340 339 337 336 334 334 333 334
354 352 350 350 348 348 345 344 343 343 342 341 340 340 339 339 338 338 335 332 331 337 336 338 340 337 339 342 341 342 342 344 346 347 347 347 346 345 345 342 339 336 335 336 336 335 334 332 334 336 338 339 340 342 344 345 346 345 345 345 344 343 343 341 342 342 340 337 337 335 334 333 333 334
355 353 352 352 351 349 347 346 345 343 343 341 340 340 339 338 338 337 335 332 332 337 338 337 338 340 339 339 341 341 341 342 344 346 347 347 345 345 345 345 341 338 336 335 335 334 334 333 334 335 336 338 340 341 342 343 341 341 342 342 339 339 340 340 341 341 340 337 336 334 333 333 333 334
355 354 353 352 352 351 348 347 345 344 343 342 340 340 338 338 338 338 336 334 333 332 337 337 341 339 340 340 343 341 340 340 343 343 345 346 345 345 345 345 345 339 338 336 335 334 334 333 333 334 335 336 338 339 340 340 338 339 340 338 337 336 337 338 339 340 338 336 335 334 333 333 334 333
355 354 353 353 353 352 349 348 346 345 345 344 343 342 341 340 340 339 338 337 334 333 335 339 337 339 341 339 341 342 342 343 344 342 342 342 344 345 345 345 344 340 338 337 336 335 334 333 333 333 333 334 335 336 336 335 335 336 335 333 334 335 336 335 336 337 338 334 335 333 333 333 333 332
355 354 354 354 354 353 350 350 349 347 346 345 344 344 344 342 342 341 339 338 337 338 335 338 338 340 340 341 342 342 342 340 341 341 343 343 342 343 345 345 344 342 338 336 335 335 335 333 332 331 332 331 331 331 332 332 332 331 332 331 331 331 331 330 330 334 333 331 331 333 333 333 333 331
356 355 354 355 355 354 351 351 350 349 346 345 344 344 344 343 343 343 341 340 339 337 335 337 341 342 341 342 343 342 340 341 341 341 341 341 342 343 342 343 343 341 338 337 336 335 334 334 333 332 331 330 330 330 330 330 329 329 328 326 327 329 329 328 328 329 329 327 326 328 331 332 331 329
357 356 355 356 356 354 352 352 352 352 350 348 345 344 344 344 344 343 342 342 340 338 337 337 337 340 339 340 341 343 341 340 340 341 341 341 341 341 340 340 341 343 342 343 342 338 336 335 333 333 333 331 330 329 329 330 328 326 324 322 324 328 326 326 326 326 325 323 323 324 327 329 329 329
357 357 356 356 356 355 354 353 353 353 352 350 349 348 346 345 343 342 342 342 340 339 338 339 339 338 340 340 336 343 341 341 340 338 337 337 342 341 340 340 341 341 341 341 339 340 341 339 338 332 329 330 330 329 328 327 326 325 323 321 321 322 323 324 323 322 323 322 321 321 321 321 325 327
357 357 357 356 356 356 356 355 355 354 353 352 350 350 349 347 344 342 342 341 339 339 338 337 337 339 338 340 339 340 340 339 338 338 337 335 337 340 341 341 340 342 342 341 341 339 338 338 337 332 332 331 331 329 329 330 330 327 323 322 325 324 322 322 322 321 320 320 319 319 320 320 320 323
357 358 358 357 357 357 353 346 346 347 346 353 351 351 350 348 345 344 343 342 341 339 338 338 339 338 338 338 338 337 337 336 335 341 340 338 338 340 339 340 342 341 340 341 339 340 342 341 342 342 342 341 337 335 333 335 333 329 324 323 325 325 323 321 321 321 320 318 318 317 319 319 317 318
356 357 357 358 354 345 343 341 338 336 336 337 348 353 352 349 347 345 343 342 341 340 339 338 338 337 337 337 338 338 339 340 341 339 339 336 338 340 338 339 341 343 340 338 339 340 342 340 341 343 341 341 343 342 339 337 335 331 326 325 325 325 324 322 321 320 319 318 317 316 316 317 317 316
355 356 357 358 357 350 344 345 336 335 334 334 333 335 338 343 350 347 344 343 343 341 340 340 340 338 337 338 340 339 340 341 340 339 341 338 338 336 335 333 342 345 342 341 339 338 343 342 339 341 341 341 341 341 341 334 331 329 327 327 326 325 325 324 322 320 319 318 317 316 315 315 316 315
355 355 356 356 357 358 357 357 354 343 333 330 331 331 331 333 334 338 347 347 345 343 341 341 341 340 339 339 340 339 339 339 340 341 340 339 338 337 336 336 334 343 342 339 336 335 340 342 339 338 339 341 341 340 337 332 328 327 327 326 325 324 324 325 325 323 320 319 319 318 317 316 316 315
355 355 355 355 357 357 348 351 357 357 355 334 328 329 330 330 330 330 330 333 347 350 346 344 343 342 342 340 341 342 342 343 340 341 338 339 338 338 337 335 335 337 339 337 334 332 336 338 338 336 338 340 340 339 334 331 329 327 326 326 325 325 325 324 324 323 322 320 318 316 316 317 316 314
355 355 355 355 355 357 357 357 357 357 357 357 353 345 341 342 340 331 327 326 327 337 346 347 345 347 346 342 344 346 346 343 340 340 339 340 338 338 336 337 336 337 338 334 333 331 333 336 335 334 337 339 339 340 335 329 329 327 325 325 324 324 324 324 323 322 321 321 319 316 314 313 312 312
355 356 356 356 356 356 357 357 355 357 356 356 356 355 353 350 348 349 347 341 339 338 339 344 345 346 348 348 348 348 348 346 345 344 343 343 342 341 339 336 336 335 337 337 334 329 334 337 333 334 336 338 339 340 332 329 328 327 325 324 324 323 323 323 322 321 320 320 318 316 314 311 310 310
356 357 357 356 356 356 357 347 334 340 355 356 354 353 354 355 355 354 344 338 339 344 344 344 344 345 346 339 347 348 348 348 347 345 345 341 338 336 333 332 335 335 338 338 335 331 332 337 334 334 338 339 337 339 340 331 327 327 325 324 323 322 321 321 322 321 320 320 318 316 313 310 308 308
355 356 357 357 356 357 356 344 332 330 334 353 353 353 353 353 353 353 356 338 329 330 329 329 331 331 331 330 328 326 326 334 341 343 338 337 338 333 331 332 333 334 337 338 337 335 332 336 336 335 337 337 336 337 339 340 328 326 325 324 323 321 319 320 320 320 320 319 318 316 314 309 307 309
355 355 347 355 356 356 356 338 329 329 334 348 352 353 352 352 352 353 355 354 349 328 325 326 327 327 327 327 326 325 325 324 329 339 336 339 338 334 333 331 333 335 337 339 340 335 333 336 337 335 336 336 336 337 338 338 336 327 324 321 322 320 319 318 318 320 319 319 318 316 313 308 308 315
353 354 350 345 344 349 348 333 328 326 332 349 352 352 352 350 351 352 354 352 351 351 346 343 340 340 336 337 338 340 329 326 337 339 340 341 338 334 334 334 334 332 335 340 340 333 334 335 336 336 333 331 336 340 338 338 337 336 333 330 326 320 319 317 316 315 317 317 317 315 311 308 310 319
351 353 354 349 329 325 326 325 324 322 320 345 353 353 352 351 349 353 352 351 351 350 350 350 350 349 349 348 347 347 347 345 341 338 340 341 340 337 335 335 334 332 335 342 341 337 337 339 337 341 337 332 331 335 336 337 338 338 335 334 331 325 322 320 318 316 315 315 315 314 310 308 311 319
350 351 353 355 338 326 322 320 319 318 317 321 346 353 353 353 350 345 348 349 348 348 347 347 347 348 349 350 351 350 350 349 347 341 337 341 341 339 337 335 334 334 337 342 335 341 338 340 338 339 337 335 334 333 330 332 336 335 335 334 332 332 327 325 323 322 316 314 313 312 309 308 309 314
351 351 353 354 342 327 322 319 316 314 316 317 331 341 328 328 327 343 346 347 346 346 345 345 344 345 346 346 347 348 349 349 349 350 345 339 341 341 341 339 338 336 338 345 329 339 338 337 338 336 337 335 333 333 331 328 332 332 335 333 333 333 328 326 324 324 323 321 319 314 313 308 310 311
351 353 354 354 339 325 318 314 312 312 311 314 325 317 316 316 322 336 344 342 340 340 340 340 340 340 341 342 342 343 344 345 348 348 351 349 343 342 343 344 345 344 346 348 344 342 340 337 339 337 335 336 333 333 330 330 330 331 330 331 332 333 330 328 325 325 324 322 322 315 310 308 309 310
354 354 356 350 323 316 313 313 313 312 312 326 317 313 313 314 322 335 339 339 339 337 336 336 337 339 340 340 340 341 343 344 347 348 350 352 351 347 345 345 346 346 347 347 348 346 342 339 338 340 339 337 334 331 329 331 332 332 327 331 331 331 330 329 328 326 326 325 324 320 314 313 313 312
355 321 310 309 310 309 308 309 313 313 312 309 309 309 310 321 328 330 335 338 338 337 337 338 339 339 340 341 341 343 344 344 345 345 346 347 348 349 350 348 347 345 345 345 346 346 345 343 341 341 341 339 336 335 334 331 330 330 328 327 324 327 329 327 328 326 325 324 323 319 313 311 311 315
316 315 317 315 319 322 327 340 344 344 341 327 323 320 320 330 332 333 333 336 336 337 339 338 338 339 342 341 342 343 343 341 340 341 340 340 340 342 341 340 341 344 345 345 345 346 346 345 343 342 340 339 338 335 335 332 330 331 328 325 326 326 326 325 326 327 325 322 322 319 316 314 312 313
331 332 333 337 328 329 326 329 328 329 333 338 339 338 338 338 338 337 336 336 338 339 340 339 339 341 341 342 340 339 339 338 339 341 339 337 337 338 338 337 335 336 340 343 344 345 345 344 344 343 338 337 337 336 336 335 332 331 328 325 325 319 320 323 325 324 324 322 321 319 319 316 315 317
337 340 334 332 341 339 339 340 340 339 338 337 336 337 336 336 338 337 336 337 341 341 340 339 340 339 339 337 336 337 336 336 336 337 335 333 333 334 334 332 330 332 334 337 339 343 344 343 343 343 342 340 337 337 337 335 333 332 331 326 325 326 325 321 321 323 324 320 317 316 316 315 314 314
340 340 339 340 340 340 336 335 334 333 333 331 331 331 332 332 332 332 334 332 332 333 333 333 333 332 332 332 333 332 331 331 330 332 331 331 331 331 331 329 328 328 328 330 333 336 340 342 343 342 342 341 341 340 337 333 333 333 331 329 324 324 321 321 321 321 320 318 316 315 314 315 315 315
338 337 336 336 335 333 333 331 330 329 329 328 327 328 323 328 328 327 328 328 328 328 328 328 328 328 327 327 327 327 326 327 327 328 324 327 328 327 327 326 326 327 327 327 329 331 334 336 339 341 342 341 342 342 340 335 333 333 333 333 326 324 324 321 322 321 318 317 316 313 312 313 315 316
335 332 331 330 331 331 331 328 327 327 326 325 326 325 325 326 325 325 326 325 325 325 325 325 325 324 324 323 324 323 323 323 323 324 325 326 326 325 325 325 324 325 326 326 327 331 333 334 335 334 335 336 335 338 340 339 336 334 333 331 327 323 322 320 321 319 318 317 317 314 313 313 312 314
330 330 329 328 327 327 326 325 325 325 325 324 324 325 324 324 325 325 324 323 324 323 323 322 322 322 322 322 321 321 321 321 322 322 322 322 322 323 324 324 324 325 326 327 327 330 331 331 331 329 327 328 328 327 331 335 336 338 333 331 328 324 322 319 319 318 317 316 316 315 312 311 311 313
326 326 326 325 324 324 324 324 324 324 324 324 324 325 324 324 324 324 324 325 324 322 322 322 322 321 321 321 320 320 321 320 320 321 320 321 321 321 321 322 322 323 325 326 329 330 331 330 332 330 327 326 324 324 328 334 327 329 338 333 328 325 321 318 317 315 316 316 315 315 314 313 312 312
323 323 323 322 322 322 324 324 324 324 324 325 325 325 324 324 324 324 325 324 322 322 322 321 321 321 321 320 320 319 319 320 320 319 319 320 319 319 319 319 320 321 323 325 328 329 330 330 330 330 328 325 324 324 325 330 325 323 323 334 332 325 321 317 315 314 314 316 315 316 317 314 313 313
324 322 322 322 322 324 324 324 324 324 325 324 324 323 323 323 323 323 323 323 323 323 323 323 322 322 321 321 320 319 318 318 318 318 318 318 318 318 318 318 319 320 321 322 325 329 331 332 331 330 329 327 326 327 328 328 326 330 326 316 328 322 318 316 315 315 315 313 314 314 314 316 316 315
321 322 323 324 324 325 325 325 325 325 324 324 324 323 322 321 322 322 322 322 322 322 322 322 322 319 322 321 320 320 319 318 317 318 317 317 317 317 317 318 317 319 320 322 323 326 328 329 330 331 331 332 333 334 327 322 318 320 323 318 311 318 319 317 315 314 313 314 312 310 309 311 310 312
324 325 324 325 326 326 325 325 325 325 324 323 323 319 322 321 321 321 321 321 321 321 321 322 322 322 322 321 321 319 317 317 318 317 317 317 316 316 315 313 317 318 318 319 321 323 325 329 332 325 333 334 332 324 322 321 320 318 316 316 307 307 312 315 318 316 313 313 311 309 308 308 309 310
323 323 323 325 326 325 325 324 324 323 322 322 321 320 321 321 321 315 319 320 321 321 321 321 321 321 321 321 321 319 318 318 317 316 316 315 315 315 315 315 315 316 316 316 317 317 320 323 325 327 329 327 322 321 319 322 320 311 310 310 311 308 307 308 311 313 314 312 310 307 306 306 308 307
325 325 325 325 326 325 324 323 322 322 321 321 321 320 320 320 320 319 319 319 319 320 319 319 320 320 321 321 320 320 319 318 317 317 316 315 315 314 314 315 315 315 316 316 317 318 319 320 320 322 322 321 320 320 315 310 308 309 308 308 309 311 311 310 309 310 310 311 311 311 310 308 306 303
324 325 325 325 324 323 322 321 321 321 321 320 320 320 319 318 318 318 319 319 319 318 319 319 319 320 320 320 320 320 319 318 318 317 316 316 315 315 315 315 315 316 316 316 315 316 317 317 317 317 315 313 314 312 309 309 307 307 308 308 309 309 309 311 311 310 310 310 310 310 311 311 312 311
317 320 320 320 319 319 319 320 320 321 320 320 320 319 318 318 317 318 319 318 319 319 319 320 320 320 320 319 319 318 318 313 315 318 317 316 316 316 316 316 315 316 315 315 314 314 315 315 316 317 315 315 315 313 311 310 309 308 308 308 307 308 309 309 308 307 308 309 308 309 310 310 311 311
Wind_Speed
5 5 6 6 6 5 3 3 4 4 3 3 4 5 6 6 5 4 4 4 4 3 5 4 4 6 7 7 5 5 7 8 8 6 6 6 6 9 12 12 12 13 13 13 13 13 13 14 14 13 13 13 12 12 11 10 9 9 7 6 5 5 5 5 4 4 4 3 3 3 2 3 3 3
4 5 5 5 5 4 4 5 4 4 5 4 4 5 4 5 6 5 5 8 4 4 2 5 5 2 5 5 5 6 7 8 10 7 7 7 7 11 12 13 13 13 14 14 14 14 14 14 14 13 13 13 13 13 12 11 10 9 8 7 7 7 6 5 6 5 4 4 4 3 2 2 2 2
5 6 7 6 5 4 5 4 3 3 4 4 4 4 4 5 6 6 4 6 4 3 4 4 5 6 5 4 5 5 6 7 9 7 7 7 12 13 10 13 14 14 14 14 15 15 15 15 14 13 13 13 13 13 13 12 11 10 9 9 8 8 7 7 6 6 6 5 4 3 2 2 2 2
5 6 7 7 6 5 5 5 5 4 4 4 5 5 5 5 5 5 5 6 12 3 5 5 4 5 5 3 5 6 5 5 10 7 7 8 7 8 8 13 15 15 15 15 15 15 16 16 15 15 14 14 14 13 13 13 12 11 11 10 9 8 7 7 7 7 7 6 5 3 3 3 2 2
6 6 7 7 7 5 6 5 4 4 5 5 5 5 5 5 5 6 6 7 11 7 4 5 4 1 2 4 6 7 6 6 6 7 8 7 7 7 7 8 13 15 16 16 16 16 16 16 16 16 16 15 15 15 14 14 13 12 11 11 11 10 9 8 8 8 8 7 6 5 4 4 3 3
5 6 7 7 7 6 7 5 5 5 5 5 5 6 6 7 6 6 7 8 6 13 4 5 2 4 4 5 3 8 8 8 5 7 7 6 7 7 7 7 8 14 16 17 17 17 17 17 18 18 17 17 16 15 15 14 14 13 12 12 12 11 10 10 9 9 9 8 8 7 6 5 5 3
6 7 7 8 6 4 6 6 6 5 7 5 7 7 6 7 6 6 8 6 8 10 11 5 6 6 4 7 7 7 6 6 4 6 7 7 6 7 8 8 8 12 15 17 18 18 18 18 18 18 18 17 17 16 15 15 14 13 13 13 13 12 12 11 11 10 10 10 9 9 8 8 6 4
7 8 7 8 6 5 6 7 6 6 6 7 6 7 6 7 7 6 6 8 9 7 10 7 6 4 5 6 6 4 3 4 4 6 5 5 7 8 7 8 8 10 15 16 18 18 18 19 19 18 18 17 16 15 15 14 14 13 13 13 13 13 13 12 12 12 12 11 10 9 9 9 8 6
8 8 9 8 5 6 7 7 7 6 7 6 6 7 6 6 6 5 6 7 6 8 11 11 5 3 4 4 4 3 5 5 5 5 6 7 6 6 8 7 8 12 15 15 17 17 18 18 18 18 17 16 15 15 15 15 14 14 14 14 14 14 13 13 13 13 13 13 12 10 10 10 9 7
8 8 8 8 6 7 9 8 7 6 8 6 7 8 7 6 6 6 7 6 6 7 10 10 11 6 6 6 5 4 4 5 6 6 6 6 6 6 7 8 7 6 7 7 9 12 15 17 19 17 16 16 16 15 15 15 15 15 15 15 15 15 14 14 14 13 13 13 12 11 11 10 9 8
9 9 8 8 7 9 9 9 8 7 7 6 7 8 6 6 6 7 6 5 6 7 7 7 7 8 6 4 9 3 3 5 6 7 8 9 6 6 7 8 6 6 8 12 15 13 11 13 12 15 17 17 17 17 16 16 16 16 16 16 16 16 15 15 15 15 14 14 13 12 12 11 11 10
9 9 9 9 8 9 9 9 8 7 7 5 7 6 5 5 7 7 6 5 6 6 7 7 9 7 7 4 5 3 2 4 6 7 7 11 10 7 6 7 7 5 6 8 8 10 12 13 14 14 14 16 18 18 16 18 17 18 17 17 17 17 17 17 17 16 16 15 14 13 13 13 12 11
9 9 9 9 9 11 13 14 12 10 9 7 8 8 6 6 7 7 6 6 5 6 7 8 8 8 7 6 6 6 6 9 14 7 6 8 8 7 4 5 5 7 7 7 7 7 7 8 7 6 6 9 15 15 18 15 19 19 17 18 18 18 18 18 18 18 17 16 15 14 14 14 13 12
9 9 9 9 13 14 15 15 15 15 15 15 12 11 7 7 7 7 6 6 7 7 7 8 8 8 10 8 9 9 9 9 6 6 5 7 6 4 7 6 5 6 7 8 8 7 4 7 7 5 8 7 9 8 9 10 13 16 19 19 18 19 19 19 19 19 18 17 16 15 15 15 14 13
9 8 8 8 11 12 12 14 16 16 17 17 18 19 17 12 10 7 7 8 7 7 8 8 8 9 12 11 9 9 9 7 7 7 5 6 4 6 6 10 4 6 8 6 7 10 6 7 9 9 9 9 9 10 11 17 20 20 20 20 20 20 20 20 20 20 19 18 18 17 16 16 15 14
8 8 8 8 7 8 11 10 10 13 16 17 18 19 18 18 18 17 13 11 9 9 8 8 10 8 12 13 8 9 8 10 8 6 6 6 6 7 7 6 10 4 6 7 8 11 8 8 9 11 12 12 11 13 18 21 21 22 22 22 22 22 22 22 21 21 20 20 19 18 18 17 16 14
11 10 9 8 8 8 13 11 10 9 11 14 19 19 18 18 19 19 20 18 15 12 11 13 13 12 12 13 12 11 11 8 10 7 6 6 7 6 6 9 11 8 8 7 9 12 11 9 9 12 15 11 11 14 19 22 22 23 23 23 23 23 23 23 22 22 22 21 20 19 19 18 17 16
11 11 10 10 10 9 9 9 9 9 10 9 8 9 9 10 16 18 19 19 20 17 14 14 16 14 11 15 14 12 9 10 11 10 9 6 5 4 5 8 12 14 9 12 9 11 13 9 11 13 13 7 9 10 12 19 21 22 23 23 23 23 23 23 23 23 23 22 21 21 20 19 18 17
12 12 11 11 11 12 10 10 11 9 9 9 8 8 9 10 11 10 11 11 11 10 11 15 16 18 15 16 17 14 10 12 12 11 8 4 4 3 3 11 16 16 9 8 5 12 15 1 9 12 10 4 7 8 10 14 17 20 20 21 22 23 23 24 24 24 23 23 23 22 21 20 19 18
12 11 11 12 12 13 12 13 15 14 11 9 11 13 10 11 12 10 10 14 14 13 12 13 15 16 17 19 18 15 11 10 9 3 6 2 6 6 11 15 15 15 7 9 8 9 15 8 5 12 9 6 9 9 8 13 19 20 20 21 21 22 23 24 24 24 24 24 24 23 22 21 19 18
12 12 12 12 12 12 12 13 15 16 14 12 14 12 12 12 11 10 9 14 19 20 22 24 23 23 23 23 24 21 14 12 4 7 4 8 7 8 11 15 13 16 13 4 9 10 16 12 8 11 11 7 10 9 8 8 14 20 22 23 24 24 23 23 24 24 24 25 24 24 23 21 19 18
11 13 16 15 13 13 13 14 15 15 13 10 13 12 11 12 12 11 10 10 11 17 21 23 23 22 21 22 23 21 15 14 6 5 13 11 6 8 11 14 12 13 13 6 10 8 16 12 9 10 8 4 7 8 9 9 11 17 19 23 25 25 24 23 23 23 24 25 24 25 25 22 20 13
11 11 12 16 16 15 15 17 15 17 13 11 11 13 10 11 11 13 14 13 12 8 7 9 8 13 15 15 14 15 17 10 13 13 15 12 9 13 15 13 12 12 14 7 14 9 16 11 11 9 7 11 11 7 9 10 10 9 10 12 14 22 23 23 23 23 24 24 25 25 25 23 19 8
11 10 10 11 15 19 20 19 18 16 17 12 11 9 9 9 14 13 11 13 10 7 6 8 8 11 10 8 8 8 8 7 13 14 14 13 12 13 15 14 13 14 14 3 16 13 12 9 9 10 11 11 10 4 6 9 10 9 8 9 8 17 21 22 20 25 24 24 26 25 25 24 20 9
9 9 8 8 13 18 19 19 19 18 17 15 11 11 9 12 7 6 11 16 13 12 11 8 10 10 8 8 8 8 9 8 8 9 13 13 13 13 13 14 14 16 16 11 14 12 10 8 9 8 11 11 13 9 6 5 8 8 9 11 9 10 9 11 10 12 19 24 24 25 24 24 23 16
9 9 9 10 12 16 17 16 16 16 15 14 9 10 15 7 14 10 14 13 9 11 9 9 10 9 10 9 8 8 9 10 8 7 8 12 14 14 15 15 16 14 15 14 18 14 13 14 13 13 11 11 12 12 11 8 8 9 6 9 11 9 10 11 11 10 10 8 12 18 20 25 23 21
11 10 9 10 12 11 11 10 10 11 10 7 8 14 12 8 10 10 9 9 12 13 10 10 11 11 9 9 9 7 9 10 9 9 9 9 12 14 15 16 15 16 17 15 11 15 14 15 12 14 15 13 14 10 11 11 10 6 5 9 10 9 10 10 12 11 10 10 10 22 22 22 24 23
8 9 7 2 4 4 4 3 4 7 6 5 6 8 11 5 12 9 8 6 12 13 8 8 8 8 7 6 7 7 7 8 7 8 9 10 10 11 12 14 16 17 17 14 14 14 14 15 15 14 16 15 14 14 13 11 11 8 10 8 8 10 9 11 12 9 10 11 12 9 9 8 9 12
5 5 9 8 7 8 8 9 7 5 5 6 7 6 3 8 8 8 8 11 10 8 8 8 7 7 7 6 6 6 9 10 9 7 8 8 9 10 10 12 13 15 12 13 13 14 15 15 16 15 14 13 14 15 12 14 11 11 10 7 7 11 10 11 11 12 12 11 11 12 15 14 11 8
3 4 5 6 6 6 5 2 1 1 1 3 3 4 6 6 6 7 9 10 8 8 7 6 7 8 6 7 7 7 8 9 11 10 10 11 10 8 9 11 11 12 13 14 15 14 16 16 16 16 16 15 14 15 14 14 13 10 10 11 9 2 5 9 13 13 13 13 13 10 12 13 14 13
8 5 4 2 3 3 3 2 2 2 2 3 4 4 3 3 5 6 7 9 9 7 6 5 6 7 9 9 9 8 9 10 10 7 9 11 12 10 10 10 14 13 11 12 14 13 15 16 17 16 16 15 14 15 14 12 14 11 10 11 11 12 10 13 12 11 12 12 11 11 11 11 11 13
4 3 3 3 2 3 4 4 4 4 4 5 5 5 5 4 3 4 2 3 5 6 6 7 9 9 9 10 10 10 10 11 11 10 10 10 13 11 12 12 13 13 13 10 11 13 14 15 15 16 17 17 17 15 12 13 13 11 11 11 13 13 8 15 14 13 12 12 12 12 14 14 14 12
4 4 4 4 3 4 5 4 4 4 4 5 4 5 5 5 5 4 3 3 1 2 3 4 6 7 8 8 8 9 10 11 12 12 11 11 12 13 11 12 14 14 15 14 10 10 10 11 13 16 16 17 18 18 15 15 13 12 13 10 9 10 7 11 13 13 12 12 13 14 13 12 11 12
5 4 5 4 4 5 4 4 4 4 3 2 2 5 5 5 5 5 5 4 2 2 3 4 5 6 7 8 8 8 9 10 10 11 11 12 11 12 12 14 14 15 14 16 13 12 11 11 12 13 15 17 18 19 17 18 16 13 14 14 13 14 13 13 14 16 17 18 18 15 14 14 13 13
5 6 6 5 4 4 4 5 4 4 3 3 4 5 5 4 5 5 5 4 3 3 3 3 4 4 5 6 7 8 9 9 10 11 11 11 12 12 12 12 16 15 15 16 14 12 11 11 11 13 12 13 16 13 15 17 15 13 10 10 10 13 13 12 12 13 15 14 14 18 15 13 13 12
7 5 6 6 5 5 5 4 4 4 4 5 5 4 4 5 5 5 6 6 5 5 4 4 4 5 5 5 6 7 8 8 9 10 11 10 10 11 12 13 15 15 14 14 14 11 10 12 11 13 14 12 11 16 13 20 24 16 15 12 9 10 9 10 11 11 14 13 13 14 16 17 14 12
8 7 6 6 5 4 6 5 5 5 5 5 5 4 5 5 5 6 6 5 5 4 4 5 5 6 6 6 7 7 8 8 10 9 10 11 10 11 12 13 13 14 14 13 12 12 11 12 11 12 14 14 14 14 10 4 17 21 14 12 11 12 12 12 12 11 13 14 14 15 17 17 17 16
7 7 7 6 5 4 4 4 4 5 5 5 4 4 5 5 5 5 4 4 5 5 4 5 6 7 7 8 8 9 9 9 9 10 11 11 11 12 12 14 14 14 15 14 12 12 10 11 11 11 11 13 15 13 13 4 2 6 19 17 14 11 11 12 13 15 15 13 16 14 10 12 14 14
7 6 5 5 4 4 4 4 4 4 5 5 5 6 5 5 4 4 4 4 3 3 4 4 5 6 7 8 8 9 10 11 10 11 13 12 13 14 15 15 15 15 14 14 12 11 10 10 10 10 11 13 13 12 11 12 9 5 7 16 11 8 12 16 17 15 14 14 11 5 3 5 9 13
5 5 4 5 5 5 4 4 4 5 5 5 5 5 4 4 3 4 4 4 4 4 4 4 5 6 6 6 8 10 10 11 11 11 11 11 12 12 12 13 13 15 14 14 13 12 10 10 10 10 11 11 12 11 6 2 1 1 3 8 12 11 13 12 13 14 12 11 11 11 11 11 10 8
4 5 4 4 5 4 4 4 4 5 5 5 4 4 3 2 2 3 3 4 5 5 4 4 4 5 5 6 6 8 10 10 10 10 10 10 10 11 14 14 12 12 14 15 14 14 13 12 14 19 16 11 9 3 2 4 8 2 3 5 12 10 3 3 3 7 12 14 14 14 13 12 10 9
5 4 3 3 5 4 5 5 5 4 4 3 3 2 1 1 2 3 3 4 5 5 4 4 5 5 6 6 6 7 7 7 9 10 11 10 12 12 13 12 12 13 14 15 14 12 10 10 11 10 9 7 5 5 9 10 5 4 3 7 8 12 16 17 17 14 8 8 14 15 11 10 9 7
5 4 5 5 5 5 5 5 4 3 3 2 2 1 2 2 3 4 5 5 5 6 6 6 6 6 5 5 6 6 6 7 7 8 11 11 12 12 12 11 11 11 10 9 9 10 12 11 10 8 7 6 6 5 5 7 7 6 7 8 9 9 12 18 21 21 19 18 13 9 7 9 12 10
6 6 6 6 5 5 5 5 4 3 3 3 3 3 3 3 4 4 4 5 6 6 6 5 5 4 5 6 6 6 6 7 7 7 8 9 10 11 11 11 10 11 10 10 10 11 12 12 12 10 9 8 6 7 6 8 9 8 7 8 7 9 11 10 12 15 16 14 13 13 15 12 8 6
8 8 8 7 7 6 6 6 5 5 4 4 4 4 3 3 3 4 4 5 5 4 3 3 3 4 5 5 6 7 7 7 7 6 6 6 6 7 8 10 10 11 11 11 10 11 11 12 11 11 11 11 10 9 8 8 9 10 9 9 10 9 8 8 11 11 10 9 15 16 12 10 11 12
Wind_Direction
211 211 202 211 230 226 185 195 197 191 183 192 181 182 188 182 229 280 293 268 248 272 196 222 268 207 214 221 207 205 218 225 219 217 226 227 232 235 233 236 240 242 243 244 246 248 250 251 251 251 252 253 253 252 252 248 240 243 235 224 224 222 223 211 214 228 240 249 257 268 292 331 356 345
206 219 216 207 224 206 188 206 202 187 188 175 187 197 201 174 209 215 260 282 204 252 241 211 249 215 227 223 219 211 222 220 217 220 221 226 229 235 232 234 237 240 242 243 244 245 247 249 250 250 250 251 251 251 250 249 243 236 225 217 218 222 221 203 206 219 227 234 241 248 289 338 350 340
205 215 224 209 223 194 202 198 199 194 175 196 186 201 182 195 203 205 203 279 275 178 252 240 234 242 223 215 227 225 230 222 216 221 223 226 234 233 234 233 235 236 238 241 242 244 244 246 247 247 246 247 248 247 246 245 242 236 227 218 216 218 215 205 200 215 227 228 223 235 273 300 310 315
211 219 224 219 219 197 188 198 190 186 192 187 195 192 193 205 194 177 192 227 267 200 233 258 248 231 244 201 219 234 240 227 220 226 227 229 226 234 237 234 233 234 236 238 240 241 243 244 245 245 245 243 243 243 240 241 238 234 227 219 215 215 211 201 198 204 214 221 215 215 241 264 279 284
216 219 228 230 223 192 205 208 188 189 191 191 202 188 191 205 179 181 199 232 265 272 198 247 251 243 207 244 211 230 233 230 219 224 231 228 229 230 232 236 234 232 234 236 238 239 241 243 243 244 243 243 241 241 239 239 235 230 225 219 213 213 210 205 202 208 214 216 207 207 225 246 250 260
215 216 227 236 230 193 214 211 205 194 189 194 194 203 197 206 196 190 197 228 234 270 247 256 213 245 184 248 187 216 224 233 205 220 225 225 224 229 231 233 237 231 233 234 236 238 239 241 241 242 241 241 240 239 238 237 233 226 222 218 213 211 209 206 206 210 214 215 206 205 213 226 234 237
209 218 223 233 226 199 217 220 220 195 203 195 202 211 202 214 207 189 202 206 239 252 269 227 253 237 209 212 239 220 235 242 206 223 228 226 225 226 229 232 239 233 231 233 235 236 237 238 240 239 239 239 239 239 238 236 232 224 218 215 213 211 208 206 207 211 217 217 211 205 206 212 216 220
211 220 227 232 219 207 223 228 219 210 205 203 209 216 213 215 222 202 193 216 233 254 272 254 216 232 224 246 248 252 255 252 234 227 243 233 235 232 225 228 235 236 232 233 235 236 237 238 238 239 239 238 238 238 237 235 231 224 217 214 215 213 209 207 208 212 217 218 213 203 203 209 211 208
220 223 227 235 213 204 226 232 226 212 208 212 212 223 218 216 224 211 207 219 220 248 258 273 255 220 237 249 264 215 239 245 242 239 235 231 234 235 236 235 236 242 237 236 236 237 238 239 240 241 241 240 239 237 236 234 231 225 218 216 215 215 211 208 209 212 217 219 215 206 205 207 207 203
222 227 229 229 214 212 222 236 233 221 221 207 214 220 222 222 216 223 223 214 224 230 255 263 278 262 259 266 241 207 209 244 261 254 241 243 236 233 242 235 232 223 228 226 233 238 240 239 239 240 238 238 237 235 233 232 230 225 218 216 216 215 213 209 210 213 216 218 214 209 205 208 204 202
227 229 230 228 216 222 227 235 236 230 227 219 226 223 222 211 211 227 228 217 222 230 247 260 252 270 256 227 270 243 189 232 238 259 269 258 220 218 226 249 237 226 237 237 236 238 236 236 235 233 234 235 234 230 228 227 226 223 218 215 215 214 213 210 210 212 215 215 212 208 206 207 206 207
231 229 229 225 220 224 230 233 238 225 236 228 239 230 209 205 208 224 224 218 219 230 238 241 261 251 261 235 233 246 222 248 250 218 234 260 261 237 220 228 251 246 235 246 240 233 243 249 241 239 235 232 233 231 229 227 224 221 218 215 214 213 212 211 209 210 212 212 209 208 205 204 205 208
231 231 231 228 227 228 234 233 235 232 228 230 242 239 195 209 212 224 228 227 221 232 239 252 250 256 250 245 245 237 221 225 246 247 185 245 257 267 268 246 224 246 246 248 247 233 221 242 238 222 225 230 231 231 225 227 223 222 218 215 215 213 211 210 209 209 209 208 206 206 204 203 203 207
232 231 231 233 233 232 232 232 231 232 231 229 234 248 211 212 209 217 224 224 226 232 241 242 249 256 254 244 239 244 239 242 253 247 219 243 260 283 266 267 222 219 231 247 254 245 207 236 253 231 236 232 217 227 210 217 217 216 214 214 214 213 212 210 209 208 206 204 204 203 203 201 201 203
238 235 231 237 234 231 233 233 231 230 230 232 235 241 241 228 217 217 221 229 229 236 238 248 248 249 264 259 251 251 257 244 231 235 227 237 256 252 267 278 272 203 217 234 247 264 215 197 232 229 225 221 213 216 218 219 218 217 210 210 211 212 212 210 208 207 204 201 201 200 201 200 199 200
239 239 236 231 232 230 230 227 228 229 232 233 236 239 242 240 235 231 230 238 243 234 243 246 243 251 257 265 254 254 251 255 251 228 223 215 225 243 248 256 266 247 180 220 241 255 233 193 219 236 230 218 212 212 217 213 211 212 212 209 208 209 210 209 207 205 202 200 199 198 198 198 197 198
239 240 241 241 236 238 231 230 231 235 233 225 231 236 241 246 242 239 238 236 240 249 252 258 259 244 256 261 256 242 249 246 256 239 220 208 221 233 253 258 265 253 199 209 233 250 240 190 219 234 236 218 219 223 217 212 208 209 210 209 207 206 207 206 205 203 200 197 196 195 196 196 195 194
234 235 237 241 245 238 233 228 228 229 234 239 224 224 227 236 244 240 237 238 242 244 249 254 260 255 236 251 254 247 236 242 245 244 240 203 218 238 271 280 260 251 184 207 224 260 253 203 232 245 255 236 244 241 230 215 214 212 212 210 208 206 205 204 203 201 197 196 194 193 193 194 192 192
235 234 233 237 243 245 239 233 226 225 228 231 233 236 235 232 238 234 227 219 219 222 231 244 249 256 252 252 255 252 242 241 245 243 264 354 21 43 283 257 252 259 223 214 217 257 279 192 228 253 268 272 241 238 243 229 221 218 216 213 211 209 206 204 202 198 195 194 191 190 191 193 190 189
236 234 232 236 240 245 243 237 224 225 230 236 242 246 247 254 252 243 230 229 225 221 223 229 238 246 249 250 253 249 243 249 254 357 41 135 137 180 238 255 269 273 250 173 200 249 265 244 195 255 249 225 240 234 224 213 215 217 215 214 214 212 210 207 203 197 194 192 190 188 188 190 188 185
238 235 232 232 240 242 244 238 224 221 218 239 244 245 248 255 260 259 255 226 223 224 228 235 238 243 249 254 257 259 259 258 283 65 295 248 161 212 246 256 260 264 271 148 180 229 260 253 233 260 261 244 247 240 224 218 210 213 213 211 211 212 210 208 203 198 194 192 189 187 187 187 184 183
241 239 233 233 238 243 246 240 225 219 207 221 235 242 242 249 258 261 254 254 234 221 231 238 243 248 254 261 267 271 265 256 98 191 244 242 138 228 237 256 259 270 270 221 166 209 247 259 243 253 265 260 237 226 233 219 214 210 217 213 211 209 207 206 205 199 196 191 188 187 185 184 180 179
241 244 238 231 235 241 245 242 233 222 203 216 222 236 239 247 256 257 260 261 261 247 239 256 253 264 257 254 258 265 262 237 167 202 225 237 204 235 246 249 261 272 267 216 164 212 254 245 239 235 258 258 252 210 220 219 217 213 204 211 216 214 205 204 204 202 197 191 188 186 183 181 176 165
241 240 243 234 230 235 241 244 240 233 212 214 228 228 233 236 249 260 268 260 262 272 256 265 265 261 260 258 254 255 257 216 183 205 218 224 219 226 244 244 242 249 258 215 169 203 246 244 246 223 231 248 256 216 214 220 215 208 193 194 197 211 208 206 204 203 197 191 188 185 183 180 175 165
241 243 235 237 234 230 233 237 239 239 231 224 232 235 232 232 233 291 272 273 271 278 278 273 268 277 283 277 270 261 260 250 214 204 208 217 215 218 230 239 241 251 252 238 188 213 246 242 255 238 235 228 246 248 227 232 225 214 196 192 194 193 176 197 197 198 202 192 186 185 184 183 179 175
238 240 239 241 236 233 235 238 242 243 244 237 232 241 241 251 121 206 259 272 295 280 278 279 276 277 274 274 272 269 270 269 256 235 210 211 216 214 220 223 232 242 251 237 188 220 244 256 241 247 241 235 244 230 242 232 229 227 191 200 203 188 175 185 187 188 180 177 188 184 187 187 178 180
238 239 239 244 246 246 246 247 248 250 249 243 227 242 251 244 143 174 230 270 271 267 268 269 274 275 274 277 276 271 270 268 265 263 247 226 216 220 224 225 229 237 247 256 212 220 229 247 239 235 247 238 248 240 231 237 239 208 210 212 209 196 190 186 183 185 180 184 187 188 187 183 180 184
233 241 244 250 56 68 80 161 208 222 213 218 231 226 237 134 142 192 194 208 246 259 265 255 260 263 263 265 267 271 274 277 285 281 274 268 253 242 239 237 240 244 252 257 254 242 234 246 250 240 244 249 246 244 245 233 243 223 217 212 204 210 192 187 193 184 173 183 183 174 173 171 188 181
238 87 95 90 99 107 110 116 124 136 181 207 224 223 211 127 157 178 185 203 229 240 246 250 252 264 264 269 281 298 299 300 300 288 282 277 274 273 266 261 256 257 252 255 254 252 252 248 252 253 250 246 249 250 243 246 228 225 213 205 211 218 204 191 190 190 187 179 178 174 185 180 180 171
68 100 96 124 132 132 119 132 110 158 138 179 195 160 145 135 142 168 184 213 225 243 247 253 267 279 300 301 308 305 300 299 298 304 302 300 291 278 274 274 263 256 250 247 253 254 256 256 256 257 256 251 245 251 244 246 242 224 201 201 219 62 193 183 198 198 184 186 187 177 180 178 179 174
252 219 200 165 169 179 172 140 123 114 132 122 98 92 104 109 139 161 186 203 219 240 276 297 302 312 312 315 313 312 314 306 301 304 303 300 295 297 292 284 284 280 263 252 252 247 249 250 253 252 257 258 251 245 249 243 246 227 214 201 189 199 186 190 198 196 191 183 178 176 171 173 173 179
220 218 183 175 160 130 115 115 103 89 74 73 72 66 62 66 90 119 151 214 233 255 286 301 308 308 313 312 316 318 317 315 312 316 314 310 304 303 304 297 288 286 286 271 264 256 252 253 252 248 245 250 255 252 242 242 242 237 230 204 206 214 167 187 189 194 186 168 171 180 180 179 177 177
135 130 126 120 121 109 113 101 94 78 71 62 70 84 83 78 75 67 73 90 78 314 305 297 303 305 313 311 315 315 308 307 308 311 310 305 302 302 296 287 289 293 293 292 277 273 267 266 254 253 251 249 246 247 249 251 240 232 235 220 205 207 175 190 187 184 168 172 187 183 177 185 179 176
129 139 129 124 118 117 102 98 89 83 77 99 92 72 70 72 67 67 76 71 51 330 291 292 291 295 297 298 300 303 299 300 301 305 304 297 299 296 294 293 290 290 289 290 290 289 282 269 265 257 254 252 245 236 234 243 247 228 224 225 204 209 203 187 192 181 176 182 179 180 182 184 187 182
118 124 112 103 93 89 91 91 102 105 103 75 68 65 69 64 55 57 57 39 16 14 352 328 314 304 304 301 308 304 302 299 298 299 297 295 297 294 294 293 295 297 297 296 295 296 291 289 283 279 266 260 259 249 228 235 249 244 234 221 199 205 198 187 186 185 188 190 181 181 182 183 190 189
70 73 91 89 89 101 96 98 101 101 86 71 63 61 65 55 43 37 34 17 19 13 357 341 329 326 321 318 312 306 300 294 295 298 305 306 303 302 300 296 296 295 293 289 290 287 282 279 276 277 280 281 274 269 255 217 220 231 231 229 207 209 196 181 187 188 188 187 187 179 181 185 185 175
79 65 63 59 59 68 86 88 83 77 73 71 67 55 51 47 39 34 20 10 18 6 354 339 341 340 337 332 326 320 318 312 313 314 315 317 312 310 303 302 299 295 294 293 288 288 281 278 273 272 281 282 281 281 269 166 225 223 224 226 214 201 181 171 168 177 190 188 190 195 189 184 183 183
102 98 101 101 96 55 51 67 75 69 67 69 69 61 53 46 37 29 16 19 13 8 5 2 356 350 344 343 342 334 326 323 320 322 324 325 323 322 319 315 311 308 308 305 299 292 280 274 270 270 271 270 277 271 280 284 36 252 226 225 219 191 178 168 177 186 191 193 195 198 188 186 182 182
95 98 94 88 88 101 82 64 69 74 68 62 56 51 45 40 31 15 12 4 352 347 345 343 347 345 345 351 341 333 331 333 338 335 333 330 329 327 325 324 318 316 311 307 305 296 288 282 280 277 273 272 270 275 278 281 263 274 241 222 234 186 182 185 189 186 183 183 180 126 66 60 68 103
77 77 88 82 78 75 73 72 69 66 61 52 48 45 45 36 17 5 360 353 349 349 342 336 339 347 349 342 339 338 336 337 336 334 337 333 330 326 326 323 317 315 317 315 315 310 295 286 281 274 269 265 266 276 287 248 334 290 291 219 215 200 196 185 183 180 182 171 147 150 149 130 135 143
66 68 64 82 80 67 73 64 60 60 57 52 51 45 39 14 356 359 350 349 352 353 348 343 351 351 335 328 331 339 339 338 338 336 335 333 329 328 322 320 321 326 325 322 324 325 327 323 315 305 292 276 285 16 300 289 268 315 18 32 29 26 59 144 213 187 165 162 159 154 144 145 139 142
52 54 60 59 66 59 61 61 54 58 58 58 58 42 19 355 357 317 329 348 360 1 358 355 355 338 330 330 334 340 341 331 336 337 340 342 341 337 337 340 337 337 337 335 337 331 322 317 320 324 314 302 298 258 260 265 278 71 53 60 48 62 78 78 78 76 85 143 148 138 112 93 90 100
54 51 55 58 58 56 52 57 55 54 61 65 64 43 42 28 24 19 19 5 3 8 7 358 351 342 325 329 335 336 329 332 330 332 343 346 344 345 344 345 342 337 339 333 328 329 336 338 341 344 355 352 338 339 4 45 66 75 77 72 73 81 81 86 90 91 83 67 48 52 88 121 135 141
33 50 61 58 54 51 52 49 49 47 43 44 33 33 36 35 30 21 11 9 12 9 1 351 340 331 333 337 336 336 340 337 329 332 338 343 345 350 348 348 340 346 347 342 348 355 358 1 5 2 14 20 25 58 72 78 78 74 67 73 76 85 93 87 84 79 73 60 57 70 77 82 49 153
31 37 45 41 40 37 33 32 34 37 36 29 30 30 28 32 27 14 16 17 13 2 344 332 340 336 343 343 350 343 338 333 332 334 332 337 342 349 347 355 352 359 2 2 1 8 9 17 17 21 33 36 49 63 60 75 80 82 76 73 73 73 75 82 90 84 73 65 20 27 43 62 97 85